Lapse_Rate
9.4 9.5 9.5 9.5 9.7 9.7 9.6 9.7 9.7 9.7 9.7 9.7 9.7 9.8 9.8 9.7 9.8 9.8 9.6 9.7 9.7 9.6 9.4 9.3 9.3 9.2 8.8 8.8 8.9 8.8 8.7 8.5 8.2 9.0 9.4 9.7 9.6 9.3 9.7 9.7 9.7 9.7 9.7
9.4 9.2 9.4 9.6 9.6 9.6 9.6 9.7 9.8 9.7 9.7 9.7 9.8 9.8 9.7 9.8 9.8 9.6 9.5 9.6 9.5 9.2 9.3 9.3 9.5 9.8 9.2 9.4 9.5 9.3 9.3 9.4 8.7 8.3 8.9 8.9 9.2 9.4 9.4 9.4 9.9 10.0 9.6
9.5 9.4 9.5 9.5 9.5 9.5 9.6 9.7 9.8 9.7 9.7 9.8 9.7 9.7 9.7 9.8 9.6 9.7 9.7 9.7 9.4 9.6 9.4 9.4 9.5 9.3 9.6 9.6 9.3 9.1 9.1 9.1 9.0 8.9 8.6 9.1 9.1 8.8 9.0 9.1 9.4 9.6 10.0
9.4 9.4 9.3 9.4 9.5 9.5 9.6 9.6 9.7 9.8 9.7 9.7 9.7 9.7 9.8 9.7 9.7 9.5 9.5 9.2 9.4 9.4 9.5 9.4 9.1 8.8 8.6 8.2 8.6 9.0 9.2 8.6 8.3 8.2 8.0 8.4 8.7 8.8 8.5 8.7 8.7 9.0 9.5
9.4 9.3 9.3 9.5 9.5 9.6 9.5 9.6 9.7 9.7 9.8 9.7 9.7 9.7 9.7 9.7 9.7 9.5 9.2 8.8 8.6 8.5 8.6 8.5 8.3 8.3 8.7 8.8 8.3 8.2 8.4 8.1 8.2 8.1 8.1 8.3 8.4 8.5 8.5 8.5 8.6 8.9 9.0
9.3 9.3 9.4 9.4 9.4 9.4 9.5 9.6 9.6 9.5 9.6 9.7 9.6 9.5 9.3 9.6 9.4 9.3 9.0 8.2 8.0 7.6 7.7 8.1 8.1 8.6 8.6 9.1 9.0 9.0 8.2 5.7 6.6 7.5 7.5 7.8 8.4 8.7 8.5 8.2 8.6 8.4 8.1
9.3 9.3 9.4 9.4 9.3 9.4 9.5 9.5 9.5 9.5 9.6 9.5 9.4 9.3 9.3 9.0 9.4 9.3 9.1 8.2 8.1 7.9 8.0 8.3 8.2 8.6 8.8 8.7 8.7 8.6 8.9 9.0 8.3 5.3 6.1 6.5 7.9 9.4 8.5 8.4 8.6 8.4 8.1
9.2 9.3 9.4 9.4 9.3 9.4 9.4 9.3 9.4 9.5 9.4 9.3 9.3 9.1 8.8 8.6 9.1 9.2 9.1 7.9 8.1 8.3 8.0 8.6 8.4 8.3 8.1 8.2 7.4 7.0 7.1 7.1 7.5 7.9 7.1 6.2 6.9 7.0 8.2 7.9 8.5 8.3 8.6
9.1 9.2 9.3 9.4 9.3 9.3 9.2 9.3 9.4 9.4 9.3 9.1 9.1 8.7 8.9 8.8 8.3 8.8 8.9 7.8 8.2 8.2 7.5 8.8 8.0 7.2 7.3 8.7 7.7 6.7 6.5 6.3 7.3 8.1 8.4 8.1 7.7 7.3 6.8 6.3 6.8 7.0 7.4
9.2 9.3 9.5 9.5 9.4 9.2 9.4 9.4 9.5 9.4 9.1 9.2 9.0 8.6 8.0 7.5 7.9 8.8 8.6 7.7 7.6 7.4 8.0 8.1 7.3 7.2 8.3 8.9 7.7 6.9 6.0 6.3 6.6 7.0 7.3 8.5 8.6 7.4 8.0 7.4 7.2 7.4 7.5
9.4 9.4 9.5 9.5 9.4 9.5 9.4 9.5 9.4 9.2 9.1 8.3 8.4 8.1 8.0 8.0 7.3 8.3 8.1 8.3 8.0 8.0 7.5 7.6 6.9 6.9 7.9 9.1 8.7 6.8 6.6 6.8 7.1 7.0 7.5 7.9 8.6 8.3 7.7 7.8 7.8 7.9 7.8
9.4 9.3 9.4 9.5 9.6 9.7 9.3 9.4 9.4 9.1 8.1 7.8 7.7 7.1 7.4 7.1 7.7 7.9 8.8 9.2 9.0 8.0 7.7 7.8 7.3 6.9 8.2 9.0 8.6 8.0 7.5 8.0 8.1 8.1 7.8 8.2 7.9 7.9 8.5 8.5 8.0 7.8 8.1
9.3 9.2 9.3 9.4 9.5 9.5 9.3 9.2 8.9 8.2 7.6 7.3 6.9 6.5 6.9 6.8 7.1 8.2 9.2 9.4 9.2 8.4 8.8 8.5 8.8 7.6 8.3 8.4 8.2 7.8 8.0 8.1 7.7 7.7 7.7 7.6 7.8 7.8 8.6 8.0 7.9 7.9 8.0
9.1 9.2 9.3 9.3 9.3 9.4 9.3 9.0 8.2 7.2 7.0 6.9 6.8 7.0 6.6 6.7 7.4 7.9 8.9 8.5 8.1 8.2 8.3 7.0 6.5 7.8 7.9 8.1 8.0 8.5 8.0 7.7 7.4 7.6 7.5 7.6 7.7 6.8 6.7 6.7 6.8 7.2 7.0
9.2 9.2 9.2 9.3 9.3 9.1 8.7 8.5 7.2 6.9 6.8 7.0 7.0 7.1 7.4 7.1 8.5 8.7 8.9 8.5 8.1 8.6 8.0 6.1 5.8 7.4 7.7 7.7 8.1 7.9 7.6 6.0 6.3 6.0 7.2 7.6 7.2 7.4 7.1 6.9 6.8 6.7 7.0
9.0 9.1 9.3 9.2 9.2 8.4 8.1 8.0 8.1 7.4 7.4 7.5 7.9 8.5 8.8 9.1 9.2 8.2 8.9 9.0 9.0 9.0 7.7 6.6 6.2 6.1 6.7 7.6 7.7 7.9 7.3 5.9 5.9 6.0 7.6 7.0 6.8 5.8 6.1 6.6 6.7 6.7 6.5
9.1 9.2 9.3 9.1 8.8 8.0 7.7 7.0 6.9 6.0 6.8 7.1 8.0 9.0 9.0 9.1 9.0 8.9 8.9 8.6 9.0 8.4 7.4 7.0 6.6 6.3 5.9 6.8 7.4 7.8 6.3 5.6 5.8 6.0 7.0 7.6 8.0 6.8 6.9 6.7 6.7 6.4 6.3
9.2 9.2 9.1 8.9 8.5 7.8 7.4 7.1 7.0 6.8 6.9 6.7 7.7 8.0 8.7 8.5 8.8 8.2 8.3 8.0 7.9 8.3 7.9 7.3 6.7 6.3 6.2 6.1 6.6 6.3 6.8 6.2 6.4 6.4 8.0 7.5 7.2 7.2 7.1 6.7 6.4 6.6 6.8
9.2 9.2 9.2 8.7 8.3 8.0 7.8 7.7 6.9 6.9 6.8 6.8 7.0 7.5 8.4 7.8 8.4 8.4 8.2 7.3 7.2 7.5 7.7 7.8 7.3 6.7 6.3 6.1 5.9 6.2 6.1 6.5 6.1 7.3 6.6 6.6 7.3 7.5 8.1 7.6 7.3 7.5 7.9
9.2 8.8 9.0 8.4 8.0 7.8 7.7 7.1 6.9 6.9 6.9 6.9 6.9 7.2 7.1 7.2 7.7 7.8 7.7 7.3 7.3 7.3 7.4 7.6 7.6 7.1 6.9 6.3 5.8 5.4 5.6 5.9 5.8 7.0 7.4 7.9 8.0 8.4 8.3 8.2 8.0 8.0 7.9
8.9 8.9 8.9 7.8 7.9 7.5 7.5 7.0 6.9 6.9 6.9 6.9 7.5 7.1 7.8 8.2 7.2 7.0 7.1 7.1 7.0 7.0 7.0 7.1 7.0 6.9 6.5 6.6 6.1 5.1 5.5 5.2 5.7 5.9 7.6 8.1 8.7 8.3 8.3 8.3 8.1 7.9 7.8
9.1 9.1 8.4 7.9 7.7 7.3 7.2 7.3 6.9 6.9 7.0 7.0 7.0 7.3 8.5 8.0 7.3 7.0 7.0 7.0 6.7 6.5 6.5 6.9 7.1 6.9 6.5 5.9 6.2 5.2 5.4 5.7 5.2 5.6 6.3 8.3 8.0 8.6 8.2 7.8 7.8 7.7 7.6
9.2 8.8 7.5 7.8 7.7 7.4 6.9 7.0 7.2 7.5 7.6 7.7 7.7 8.2 7.9 7.8 7.4 7.1 7.0 6.7 6.4 6.2 6.1 6.2 6.6 6.4 6.2 5.6 5.7 5.2 4.8 5.6 5.5 5.7 5.6 8.0 8.3 8.7 7.6 7.8 7.3 7.3 7.6
9.0 8.7 7.8 8.0 7.2 7.0 7.0 6.9 7.4 7.8 8.0 8.3 8.0 7.8 7.4 7.2 7.1 7.0 6.8 6.4 6.3 6.1 5.7 5.6 5.8 5.5 5.1 4.9 4.8 4.5 4.4 4.9 5.7 5.4 6.1 7.8 8.3 8.3 7.2 7.3 8.1 7.9 7.8
9.0 8.5 7.9 8.0 7.3 7.0 7.0 6.8 7.1 7.7 8.0 8.0 7.8 7.6 7.3 7.0 7.0 6.9 6.5 6.2 6.1 5.6 5.0 4.7 4.8 4.7 4.5 4.3 4.1 4.0 4.0 3.8 4.5 5.2 5.8 7.6 8.5 8.8 8.2 7.0 8.1 8.1 7.7
8.6 9.0 8.5 8.1 7.5 7.2 7.0 6.9 6.9 7.2 7.5 7.8 7.4 7.3 7.0 6.8 6.8 6.6 6.5 6.1 5.9 5.1 4.1 3.7 3.3 2.8 3.0 3.1 3.0 2.9 3.1 3.3 3.8 3.9 5.2 7.4 8.4 8.1 8.4 8.0 7.8 7.7 7.8
Wind_Speed
3 4 6 7 8 9 9 11 12 12 14 14 15 14 15 15 16 15 16 16 16 15 14 12 13 12 10 9 9 9 10 10 13 11 11 12 16 15 14 15 16 15 17
5 6 8 8 9 10 11 13 13 14 14 15 15 15 16 15 16 16 16 16 15 14 14 13 14 10 14 14 10 13 12 12 11 16 11 9 14 16 15 14 10 16 14
7 8 9 9 10 12 13 13 14 15 15 16 16 16 16 16 16 16 15 14 14 15 13 14 16 15 15 12 14 12 12 11 13 13 11 9 9 10 13 14 13 12 14
6 8 10 11 11 12 13 13 14 15 16 16 16 17 16 17 16 14 14 14 14 14 15 15 16 16 17 17 15 16 15 13 14 12 11 11 9 10 10 9 10 11 11
7 10 11 11 12 13 13 14 15 15 15 16 16 16 15 14 10 13 13 14 15 16 17 18 18 23 31 26 14 16 18 15 13 12 12 11 11 10 11 8 10 10 11
10 11 11 12 13 13 14 15 15 16 16 16 16 15 13 11 22 26 22 15 16 16 15 16 16 24 24 31 32 34 26 14 18 13 13 14 15 13 10 9 9 9 9
11 12 12 12 13 14 15 16 15 16 16 16 15 12 13 15 24 27 27 15 14 15 16 15 14 13 21 17 25 31 32 33 30 17 17 14 15 15 12 11 11 10 9
11 12 12 13 14 15 15 16 16 15 15 15 14 14 13 13 26 26 27 15 13 16 16 16 16 17 17 21 20 20 19 18 16 11 10 14 15 8 8 9 11 9 9
12 12 13 13 15 15 15 16 15 14 14 13 13 14 14 16 24 26 23 14 15 15 13 14 15 16 27 29 20 19 19 15 17 24 23 21 22 24 17 8 9 9 9
11 12 13 14 15 16 15 15 13 13 13 11 13 13 18 15 23 26 22 11 12 10 14 12 21 21 27 24 15 10 9 7 9 9 9 12 14 18 27 16 10 9 8
11 12 13 14 15 15 14 13 13 12 14 11 13 13 14 15 16 24 23 12 10 11 9 10 10 25 27 19 15 3 2 4 9 8 9 8 8 10 11 14 14 11 9
11 13 14 14 12 12 14 13 14 12 11 11 12 11 9 12 16 19 22 23 22 11 11 9 11 27 23 15 11 5 6 6 6 7 7 7 6 7 8 9 12 12 11
12 13 14 14 13 13 13 14 11 11 9 10 9 9 8 8 8 19 21 23 21 13 10 17 26 25 21 12 5 4 5 3 4 6 6 6 6 6 6 4 7 10 12
12 13 13 13 13 12 10 9 9 9 9 9 9 8 8 7 6 8 8 9 15 13 15 12 18 16 15 11 5 3 6 5 5 5 7 6 4 3 6 5 5 6 6
12 12 12 11 12 11 11 9 8 9 11 10 9 8 10 8 9 16 15 11 10 12 12 8 9 8 6 4 2 1 3 6 6 5 4 3 4 4 4 4 7 7 9
11 10 10 9 9 9 9 10 15 17 21 21 21 15 10 17 23 21 20 21 20 18 7 7 7 7 7 6 6 6 4 7 6 6 3 3 3 5 5 4 3 4 6
10 11 9 10 9 9 8 8 10 12 16 17 19 20 20 19 22 20 20 21 19 12 5 6 6 6 6 7 7 6 4 6 7 4 3 2 1 2 5 3 1 5 4
11 15 8 8 8 9 8 8 8 9 9 8 14 18 21 22 24 19 19 17 8 8 5 5 6 6 6 6 6 6 6 6 5 3 1 2 1 1 3 2 5 4 5
9 8 9 7 8 11 8 8 8 9 9 9 9 13 15 21 20 19 18 7 7 7 6 5 5 6 6 6 5 6 8 6 6 2 4 2 4 3 3 4 4 7 7
8 13 11 8 9 8 7 8 8 8 8 8 8 9 9 10 9 9 8 8 7 7 6 6 6 5 5 5 5 5 5 7 6 4 3 3 2 2 3 4 3 3 5
6 8 11 7 8 7 7 7 8 8 8 8 8 10 21 10 8 9 8 8 6 7 6 6 6 6 5 5 4 5 4 5 6 6 3 1 2 3 3 3 4 4 3
6 7 7 7 8 7 8 8 8 8 9 9 8 9 21 8 8 8 9 9 8 8 7 7 7 6 5 5 5 5 5 4 4 5 7 1 1 2 3 4 4 4 4
7 7 7 7 7 11 8 8 8 8 9 9 9 9 9 9 9 9 10 10 9 9 8 7 7 7 6 6 6 5 5 5 3 4 5 2 1 4 3 4 5 4 5
7 7 7 7 7 8 7 8 8 11 11 9 10 9 9 10 10 11 11 11 10 10 8 7 7 9 7 6 6 6 6 6 4 3 6 3 2 3 4 2 3 7 6
7 7 6 7 7 7 7 8 8 9 9 9 9 9 10 10 11 11 12 11 11 10 10 8 6 8 9 10 11 12 11 11 7 5 4 5 7 7 4 1 1 6 8
7 7 7 6 6 7 6 7 8 9 9 9 9 9 10 10 10 11 11 13 12 11 12 8 8 10 11 10 12 16 15 13 11 10 5 4 6 4 5 5 2 2 8
Wind_Direction
276 298 287 292 303 306 300 297 294 297 296 295 295 293 292 291 290 288 286 284 280 278 278 280 280 280 274 268 264 259 253 251 263 272 267 275 285 292 291 274 268 263 260
291 291 294 302 298 299 300 303 302 300 300 298 298 296 294 292 291 290 288 285 283 282 276 272 271 269 262 255 252 251 248 247 255 265 260 260 260 276 283 289 280 271 268
300 300 301 303 303 303 304 303 304 303 302 302 300 297 297 295 293 289 290 290 285 281 281 275 268 265 267 264 256 252 250 250 252 257 259 253 257 257 268 278 280 276 270
291 297 299 300 307 306 306 306 305 305 302 302 301 299 296 292 294 292 287 281 280 279 273 269 269 264 259 258 257 257 251 247 251 252 252 250 247 250 251 257 267 267 261
298 296 301 310 308 306 307 306 305 303 301 300 300 296 307 311 300 290 285 283 280 277 273 268 264 258 259 257 250 247 249 246 242 243 245 241 240 239 238 236 246 254 264
296 307 312 309 309 309 308 307 305 303 302 300 299 309 302 291 289 291 289 286 281 275 277 277 277 278 273 274 270 269 261 236 239 237 234 232 229 225 227 233 247 256 252
312 310 309 312 313 312 310 307 307 305 305 303 311 299 292 289 290 293 292 290 290 283 281 283 283 281 280 280 276 276 274 271 267 227 230 224 234 229 212 228 238 248 257
309 309 314 316 313 311 309 308 306 307 309 320 305 298 298 296 298 297 298 297 294 291 288 293 292 292 291 286 275 265 258 253 255 266 242 234 242 254 228 228 251 254 249
308 314 319 315 310 310 308 308 308 314 311 303 302 301 303 301 301 301 301 299 292 294 299 295 307 303 291 288 286 275 245 236 239 251 253 243 223 217 219 237 244 242 250
320 318 312 311 308 308 309 311 307 310 302 299 296 302 298 297 295 299 298 301 301 302 302 298 302 309 297 306 312 312 245 194 207 221 241 245 238 218 215 214 225 229 230
317 312 310 306 309 310 308 311 318 306 304 300 303 303 300 299 295 306 312 307 313 310 304 304 308 308 297 307 323 319 236 172 211 217 238 237 236 209 216 222 221 226 234
314 307 306 310 314 309 315 320 314 306 306 304 303 298 297 291 307 306 312 318 313 312 301 305 303 304 301 298 305 296 269 250 221 221 219 224 220 231 229 224 223 226 227
308 307 314 315 312 319 330 319 311 315 309 305 300 295 299 305 309 307 319 320 324 321 316 308 313 301 305 309 282 310 310 268 250 247 242 240 227 234 236 254 262 256 234
308 314 316 314 323 328 326 309 314 310 309 300 301 309 310 300 310 300 324 331 330 323 322 320 309 299 296 285 278 3 9 344 313 297 278 246 199 224 233 213 241 245 244
312 314 316 319 330 325 311 305 312 307 305 314 317 316 316 317 315 326 339 329 324 320 343 330 331 337 339 329 355 274 4 340 312 293 241 188 209 215 244 230 233 236 219
311 315 319 325 328 306 306 311 319 315 314 317 316 317 319 321 322 332 330 331 328 326 343 330 337 338 335 338 336 343 8 340 313 301 253 174 194 257 241 172 186 226 205
309 317 319 331 315 310 312 316 317 317 305 310 314 314 316 318 329 335 337 331 326 336 328 327 329 331 334 329 326 347 4 319 303 290 247 193 66 25 116 161 249 272 217
314 314 326 320 311 312 313 315 312 312 315 318 318 323 320 328 328 330 340 333 323 330 327 326 324 326 324 328 331 328 325 323 313 286 327 104 134 40 145 150 258 86 129
315 325 328 326 313 314 316 322 313 317 313 313 315 322 330 329 333 338 340 325 319 318 324 319 316 313 315 321 323 326 315 322 316 226 109 204 216 225 109 98 37 62 84
324 328 329 325 316 316 322 321 321 321 317 318 319 322 320 342 334 335 333 325 319 316 319 312 306 298 298 304 309 314 313 315 334 334 176 219 170 106 80 100 112 57 82
331 306 335 320 310 321 326 329 325 319 319 317 323 328 335 338 336 328 324 321 317 314 308 300 294 289 284 284 288 293 304 307 320 330 325 86 98 75 87 99 89 77 71
313 324 338 319 312 324 324 329 327 321 319 325 333 321 327 344 328 321 319 318 313 304 296 291 287 277 266 262 264 270 272 285 302 320 323 13 8 55 94 84 89 106 81
326 338 327 314 318 330 334 321 327 325 323 333 322 328 333 333 330 323 321 316 310 304 296 284 279 278 259 245 240 238 247 236 257 304 313 255 251 150 70 129 125 119 114
326 335 322 311 335 337 330 327 326 330 332 332 333 334 334 330 328 328 323 318 312 306 300 286 272 275 264 242 231 223 227 227 220 263 293 284 185 197 98 20 138 146 114
331 336 323 324 335 334 331 329 331 329 332 334 337 338 334 331 329 328 325 321 319 317 313 304 279 265 256 242 231 225 219 213 230 197 237 247 190 174 150 118 304 128 127
337 334 336 332 333 334 333 333 333 336 333 334 336 335 330 328 327 326 328 328 329 327 323 317 301 278 259 238 227 217 214 210 209 225 238 223 180 184 177 171 294 134 146